This is the latest recevied weather packets stored in our database for station/object K5BV. If no packets are shown the sender has not sent any weather packets the latest 10 day(s).
| Time | Temp. | Humidity | Pressure | Rain* | Wind** | Luminosity | Snow |
|---|---|---|---|---|---|---|---|
| 1777764161 | 23.89° C | 59% | 1019.6 hPa | 0 mm | - | - | - |
| 1777763560 | 23.89° C | 59% | 1019.7 hPa | 0 mm | - | - | - |
| 1777762960 | 23.89° C | 60% | 1019.6 hPa | 0 mm | - | - | - |
| 1777762360 | 23.89° C | 59% | 1019.6 hPa | 0 mm | - | - | - |
| 1777761760 | 23.89° C | 58% | 1019.7 hPa | 0 mm | - | - | - |
| 1777761160 | 24.44° C | 59% | 1019.6 hPa | 0 mm | - | - | - |
| 1777760561 | 24.44° C | 58% | 1019.6 hPa | 0 mm | - | - | - |
| 1777759960 | 24.44° C | 58% | 1019.6 hPa | 0 mm | - | - | - |
| 1777759360 | 24.44° C | 59% | 1019.6 hPa | 0 mm | - | - | - |
| 1777758760 | 24.44° C | 58% | 1019.7 hPa | 0 mm | - | - | - |
| 1777758160 | 24.44° C | 59% | 1019.7 hPa | 0 mm | - | - | - |
| 1777757560 | 24.44° C | 55% | 1019.8 hPa | 0 mm | - | - | - |
| 1777756961 | 24.44° C | 55% | 1019.9 hPa | 0 mm | - | - | - |
| 1777756362 | 24.44° C | 56% | 1020 hPa | 0 mm | - | - | - |
| 1777755761 | 24.44° C | 57% | 1020.2 hPa | 0 mm | - | - | - |
| 1777755160 | 23.89° C | 57% | 1020.2 hPa | 0 mm | - | - | - |
| 1777754561 | 23.89° C | 57% | 1020.2 hPa | 0 mm | - | - | - |
| 1777753960 | 24.44° C | 59% | 1020.4 hPa | 0 mm | - | - | - |
| 1777753361 | 23.89° C | 58% | 1020.5 hPa | 0 mm | - | - | - |
| 1777752761 | 23.89° C | 58% | 1020.6 hPa | 0 mm | - | - | - |
| 1777752160 | 23.89° C | 59% | 1020.7 hPa | 0 mm | - | - | - |
| 1777751560 | 23.89° C | 58% | 1020.7 hPa | 0 mm | - | - | - |
| 1777750960 | 23.89° C | 58% | 1020.7 hPa | 0 mm | - | - | - |
| 1777750359 | 23.33° C | 61% | 1020.8 hPa | 0 mm | - | - | - |
| 1777749760 | 23.33° C | 61% | 1020.7 hPa | 0 mm | - | - | - |
* Rain latest hour (hover to see other rain measurements)
** Current wind speed in m/s (hover to see current wind gust speed)